Content
SEND FEEDBACK

Daily
Averages
Monthly
Summary
United States of America

PORTAGE, WISCONSIN


Home > North America > United States > Wisconsin
Elevation: 782 feet     Latitude: 43 31N     Longitude: 089 25W

WEATHER
 
SELECT A DAY
Number of Records: 450,438;   Date Range: 7/1/96 - 12/25/14
 
SHARE

PRINT THIS DATA

[ ← Previous Day ]
WEATHER ALMANAC - JANUARY 23, 2013
[ Next Day → ]
[ °C ]   °F
Weather ElementAverageHighLow
Temperature10.8 °F17.6 °F (12:55 pm)1.4 °F (11:35 pm)
Dewpoint3 °F12.2 °F (3:15 pm)-7.6 °F (10:35 pm)
Humidity71 %86 % (11:55 am)57 % (2:15 am)
Barometer30.18 in30.44 in (11:55 pm)30.04 in (1:55 pm)
Wind Speed9.3 mph19.6 mph (5:55 pm)
Wind Gust25.3 mph (6:15 pm)
Weather ElementAverage
Visibility5.9 mi
Wind DirectionW (274 °)

Weather ElementTotal
Precipitation---
Heating Degree Days55.5 (Base 65)
Averaged from 67 records on January 23, 2013
WEATHER CONDITIONS BREAKOUT
WIND DIRECTION BREAKOUT
WEATHER BY HOUR - JANUARY 23, 2013
[ °C ]   °F
Local TimeTemperatureDewpointHumidityBarometerVisibilityWind DirectionWind SpeedGust SpeedPrecipitationEventsConditions
12:35 AM5.0 °F-4.0 °F66 %30.24 in10.0 miSW (230°)4.6 mphOvercast
12:55 AM5.0 °F-4.0 °F66 %30.23 in10.0 miSW (230°)4.6 mphOvercast
1:15 AM5.0 °F-4.0 °F66 %30.23 in10.0 miWSW (250°)4.6 mphOvercast
1:35 AM6.8 °F-4.0 °F61 %30.23 in10.0 miWSW (240°)5.8 mphOvercast
1:55 AM6.8 °F-4.0 °F61 %30.23 in10.0 miWSW (250°)6.9 mphOvercast
2:15 AM8.6 °F-4.0 °F57 %30.23 in10.0 miWSW (250°)5.8 mphOvercast
2:35 AM8.6 °F-4.0 °F57 %30.22 in10.0 miWest (260°)5.8 mphOvercast
2:55 AM8.6 °F-4.0 °F57 %30.22 in10.0 miWSW (240°)5.8 mphOvercast
3:15 AM8.6 °F-4.0 °F57 %30.22 in10.0 miWSW (240°)4.6 mphOvercast
3:35 AM8.6 °F-2.2 °F62 %30.21 in10.0 miWSW (240°)6.9 mphOvercast
3:55 AM8.6 °F-2.2 °F62 %30.21 in10.0 miWSW (240°)4.6 mphOvercast
4:15 AM8.6 °F-2.2 °F62 %30.20 in10.0 miWSW (240°)5.8 mphOvercast
4:35 AM8.6 °F-2.2 °F62 %30.19 in10.0 miSW (230°)5.8 mphOvercast
4:55 AM8.6 °F-0.4 °F67 %30.19 in10.0 miSW (230°)5.8 mphOvercast
5:15 AM8.6 °F-0.4 °F67 %30.19 in10.0 miWSW (240°)6.9 mphOvercast
5:35 AM8.6 °F-0.4 °F67 %30.18 in10.0 miSW (230°)4.6 mphOvercast
6:35 AM8.6 °F3.2 °F79 %30.17 in2.0 miSW (220°)4.6 mphSnowLight Snow
6:55 AM8.6 °F3.2 °F79 %30.16 in2.0 miSW (220°)5.8 mphSnowLight Snow
7:15 AM8.6 °F3.2 °F79 %30.16 in3.0 miSW (230°)5.8 mphSnowLight Snow
7:35 AM8.6 °F5.0 °F85 %30.16 in4.0 miSW (230°)5.8 mphSnowLight Snow
7:55 AM8.6 °F5.0 °F85 %30.16 in4.0 miSW (230°)4.6 mphSnowLight Snow
8:15 AM10.4 °F5.0 °F79 %30.16 in4.0 miWSW (240°)4.6 mphSnowLight Snow
8:55 AM10.4 °F5.0 °F79 %30.15 in2.0 miSSW (210°)3.5 mphSnowLight Snow
9:15 AM10.4 °F5.0 °F79 %30.15 in4.0 miWSW (240°)6.9 mphSnowLight Snow
9:35 AM12.2 °F5.0 °F73 %30.15 in4.0 miSW (230°)6.9 mphSnowLight Snow
9:55 AM12.2 °F6.8 °F79 %30.15 in3.0 miSW (230°)8.1 mphSnowLight Snow
10:15 AM12.2 °F6.8 °F79 %30.15 in2.5 miSW (230°)9.2 mphSnowLight Snow
10:35 AM12.2 °F8.6 °F85 %30.14 in2.0 miSW (220°)10.4 mphSnowLight Snow
10:55 AM14.0 °F8.6 °F79 %30.13 in2.5 miSW (230°)8.1 mphSnowLight Snow
11:15 AM14.0 °F8.6 °F79 %30.12 in3.0 miSW (230°)9.2 mphSnowLight Snow
11:35 AM14.0 °F8.6 °F79 %30.10 in3.0 miSW (220°)10.4 mphSnowLight Snow
11:55 AM14.0 °F10.4 °F86 %30.08 in4.0 miSW (220°)10.4 mphSnowLight Snow
12:15 PM15.8 °F10.4 °F79 %30.09 in3.0 miWSW (240°)6.9 mphSnowLight Snow
12:35 PM15.8 °F8.6 °F73 %30.07 in4.0 miWest (270°)8.1 mph16.1 mphSnowLight Snow
12:55 PM17.6 °F10.4 °F73 %30.06 in3.0 miWSW (240°)10.4 mph16.1 mphSnowLight Snow
1:15 PM17.6 °F10.4 °F73 %30.05 in4.0 miWest (260°)8.1 mphSnowLight Snow
1:35 PM17.6 °F10.4 °F73 %30.05 in4.0 miWest (270°)9.2 mphSnowLight Snow
1:55 PM17.6 °F10.4 °F73 %30.04 in4.0 miWest (270°)10.4 mphSnowLight Snow
2:15 PM17.6 °F10.4 °F73 %30.04 in5.0 miWest (270°)8.1 mphSnowLight Snow
2:35 PM17.6 °F10.4 °F73 %30.04 in3.0 miWest (270°)8.1 mphSnowLight Snow
2:55 PM17.6 °F10.4 °F73 %30.06 in3.0 miWest (280°)8.1 mphSnowLight Snow
3:15 PM17.6 °F12.2 °F79 %30.06 in1.5 miWNW (290°)9.2 mphSnowLight Snow
3:35 PM17.6 °F12.2 °F79 %30.06 in7.0 miWNW (300°)8.1 mphOvercast
3:55 PM17.6 °F10.4 °F73 %30.06 in5.0 miWest (280°)9.2 mphSnowLight Snow
4:15 PM17.6 °F12.2 °F79 %30.08 in1.2 miNW (310°)16.1 mph21.9 mphSnowLight Snow
4:35 PM17.6 °F10.4 °F73 %30.09 in7.0 miWNW (300°)12.7 mph17.3 mphOvercast
4:55 PM15.8 °F10.4 °F79 %30.09 in1.2 miNW (310°)13.8 mphSnowLight Snow
5:15 PM15.8 °F5.0 °F62 %30.11 in7.0 miNW (320°)12.7 mph21.9 mphMostly Cloudy
5:35 PM14.0 °F10.4 °F86 %30.12 in0.8 miNNW (330°)12.7 mph20.7 mphSnowLight Snow
5:55 PM14.0 °F5.0 °F67 %30.14 in1.8 miNNW (330°)19.6 mph24.2 mphSnowLight Snow
6:15 PM12.2 °F3.2 °F67 %30.17 in2.5 miNNW (330°)16.1 mph25.3 mphHaze
6:35 PM12.2 °F3.2 °F67 %30.19 in4.0 miNNW (340°)18.4 mph25.3 mphHaze
6:55 PM12.2 °F3.2 °F67 %30.20 in4.0 miNNW (330°)13.8 mph24.2 mphHaze
7:15 PM10.4 °F3.2 °F73 %30.23 in4.0 miNNW (340°)13.8 mph25.3 mphHaze
7:55 PM10.4 °F-0.4 °F62 %30.26 in10.0 miNorth (350°)17.3 mph24.2 mphMostly Cloudy
8:15 PM10.4 °F1.4 °F67 %30.28 in4.0 miNNW (340°)12.7 mph17.3 mphHaze
8:35 PM8.6 °F3.2 °F79 %30.29 in1.2 miNNW (340°)15.0 mph23.0 mphSnowLight Snow
8:55 PM8.6 °F3.2 °F79 %30.30 in4.0 miNNW (340°)12.7 mph17.3 mphHaze
9:15 PM6.8 °F-0.4 °F72 %30.32 in10.0 miNorth (360°)11.5 mph18.4 mphMostly Cloudy
9:35 PM6.8 °F-4.0 °F61 %30.33 in10.0 miNNW (330°)12.7 mph19.6 mphScattered Clouds
9:55 PM5.0 °F-4.0 °F66 %30.36 in10.0 miNNW (330°)15.0 mph21.9 mphScattered Clouds
10:15 PM5.0 °F-5.8 °F61 %30.36 in10.0 miNNW (340°)10.4 mph19.6 mphClear
10:35 PM3.2 °F-7.6 °F61 %30.38 in10.0 miNNW (340°)12.7 mph20.7 mphClear
10:55 PM3.2 °F-7.6 °F61 %30.39 in10.0 miNorth (350°)15.0 mph25.3 mphClear
11:15 PM3.2 °F-7.6 °F61 %30.40 in10.0 miNNW (330°)11.5 mph16.1 mphClear
11:35 PM1.4 °F-7.6 °F66 %30.42 in10.0 miNNW (330°)9.2 mphClear
11:55 PM1.4 °F-7.6 °F66 %30.44 in10.0 miNNW (330°)9.2 mphClear
Hourly data recorded from KDLL, located miles away from Portage, Wisconsin







STORIES FROM OUR PARTNERS